Hourly Data Report for October 03, 2017

All times are specified in Local Standard Time (LST). Add 1 hour to adjust for Daylight Saving Time where and when it is observed.

ABBOTSFORD A
BRITISH COLUMBIA

49°01'31.000" N
122°21'36.000" W
59.10 m
1100031
71108
YXX

Download Data

Hourly Data (October 2017)
Hourly Data Report for October 3, 2017
Temp Definition
°C
Dew Point Temp Definition
°C
Rel Hum Definition
%
Wind Dir Definition
10's deg

Wind Spd Definition
km/h
Visibility Definition
km
Stn Press Definition
kPa
Hmdx Definition


Wind Chill Definition


Weather Definition


TIME
00:00 Legend Double Dagger 13.7 -0.2 38 4 16 24.1 101.81     LegendNANA
01:00 Legend Double Dagger 13.3 -0.4 39 5 16 24.1 101.84     Clear
02:00 Legend Double Dagger 11.8 0.2 45 4 9 24.1 101.87     LegendNANA
03:00 Legend Double Dagger 10.6 0.4 49 2 9 24.1 101.88     LegendNANA
04:00 Legend Double Dagger 8.5 1.4 61 3 10 24.1 101.90     Clear
05:00 Legend Double Dagger 8.7 1.5 60 4 6 48.3 101.91     LegendNANA
06:00 Legend Double Dagger 8.4 1.6 62 35 7 48.3 101.93     LegendNANA
07:00 Legend Double Dagger 8.3 3.1 70 36 9 48.3 101.96     Clear
08:00 Legend Double Dagger 12.2 1.8 49 34 10 48.3 102.01     LegendNANA
09:00 Legend Double Dagger 14.4 1.8 42 2 5 48.3 102.00     LegendNANA
10:00 Legend Double Dagger 15.8 1.8 39 2 10 48.3 102.01     Clear
11:00 Legend Double Dagger 17.3 3.0 38 1 18 48.3 101.95     LegendNANA
12:00 Legend Double Dagger 18.1 2.3 35 2 8 48.3 101.89     LegendNANA
13:00 Legend Double Dagger 18.8 1.8 32 35 6 48.3 101.82     Clear
14:00 Legend Double Dagger 19.1 0.3 28 10 5 48.3 101.77     LegendNANA
15:00 Legend Double Dagger 19.8 2.2 31 36 3 48.3 101.69     LegendNANA
16:00 Legend Double Dagger 19.7 3.5 34 31 9 48.3 101.65     Clear
17:00 Legend Double Dagger 18.0 5.2 43 30 12 48.3 101.62     LegendNANA
18:00 Legend Double Dagger 15.4 5.4 51 34 3 48.3 101.60     LegendNANA
19:00 Legend Double Dagger 12.5 5.0 60 16 4 24.1 101.62     Mainly Clear
20:00 Legend Double Dagger 11.0 6.3 73 36 2 24.1 101.62     LegendNANA
21:00 Legend Double Dagger 9.3 4.8 74 1 5 24.1 101.63     LegendNANA
22:00 Legend Double Dagger 9.2 5.2 76 34 5 24.1 101.60     Clear
23:00 Legend Double Dagger 8.5 5.2 80 0 1 24.1 101.60     LegendNANA

Notes on Data Quality.

Legend

  • E = Estimated
  • M = Missing
  • NA = Not Available
  • ‡ = Partner data that is not subject to review by the National Climate Archives
Date modified: